SCP
-0 0 0 0 0 0 0 0 0 0 0 0 0 0 0 0 0 0 0 0 0 0
0 0 0 0 0 0 0 0 0 0 0 0 0 0 0 0 0 0 0 0 0 0
0 0 0 0 0 0 0 0 0 0 0 0 0 0 0 0 0 0 0 0 0 0
0 0 0 0 0 0 0 0 0 0 0 0 0 0 0 0 0 0 0 0 0 0
0 0 0 0 0 0 0 0 0 0 0 0 0 0 0 0 0 0 0 0 0 0
0 0 0 0 0 0 0 0 0 0 0 0 0 0 0 0 0 0 0 0 0 0
0 0 0 0 0 0 0 0 0 0 0 0 0 0 0 0 0 0 0 0 0 0
0 0 0 0 0 0 0 0 0 0 0 0 0 0 0 0 0 0 0 0 0 0
0 0 0 0 0 0 0 0 0 0 0 0 0 0 0 0 0 0 0 0 0 0
0 0 0 0 0 0 0 0 0 0 0 0 0 0 0 0 0 0 0 0 0 0
0 0 0 0 0 0 0 0 0 0 0 0 0 0 0 0 0 0 0 0 0 0
0 0 0 0 0 0 0 0 0 0 0 0 0 0 0 0 0 0 0 0 0 0
0 0 0 0 0 0 0 0 0 0 0 0 0 0 0 0 0 0 0 0 0 0
0 0 0 0 0 0 0 0 0 0 0 0 0 0 0 0 0 0 0 0 0 0
Wind_Speed_500mb
84 77 80 74 76 79 82 75 71 67 52 44 44 49 53 52 58 61 61 58 59 45
86 85 88 77 79 78 75 66 65 67 49 46 48 50 44 46 51 57 54 55 52 51
87 83 77 80 74 79 71 52 72 76 55 50 44 42 42 41 45 49 47 46 48 50
90 84 76 74 65 48 63 72 74 64 59 45 40 44 45 41 45 39 41 44 45 42
84 85 63 73 60 64 62 52 45 42 44 42 43 39 43 40 37 38 39 38 33 32
63 49 57 65 78 58 52 44 41 35 34 36 36 40 36 32 35 35 32 27 31 33
52 42 34 49 38 33 34 33 32 33 35 36 33 30 33 32 32 29 25 26 31 35
41 33 29 28 31 30 30 33 33 36 32 28 28 32 30 26 24 25 26 29 32 29
35 28 22 23 25 27 30 30 29 28 26 26 26 25 23 21 22 24 31 28 18 18
26 26 23 23 27 27 25 25 26 25 23 23 22 22 20 22 23 19 16 19 24 30
25 27 28 29 31 29 26 26 27 27 25 22 21 19 18 15 17 20 23 28 33 40
34 37 38 35 33 33 35 33 29 25 21 27 23 21 19 21 24 25 30 35 40 43
40 37 34 32 32 32 27 23 27 30 26 22 22 23 27 30 30 34 36 34 35 38
37 33 30 30 27 28 35 34 33 30 26 26 26 28 32 36 38 36 36 37 40 42
Wind_Direction_500mb
214 217 223 223 218 222 229 238 240 240 242 255 248 245 255 258 259 256 250 239 240 244
225 222 224 220 218 225 232 237 241 242 244 250 244 255 260 264 265 258 249 249 247 250
231 233 227 234 231 223 231 238 242 231 239 240 248 257 267 269 263 253 254 249 252 256
231 235 235 236 233 250 243 237 245 242 248 239 253 260 258 256 256 250 240 241 252 265
228 230 235 247 201 244 245 237 236 244 238 242 246 248 252 253 241 232 235 249 256 262
238 231 247 238 254 239 221 231 239 229 241 247 237 245 237 219 225 230 243 249 256 257
252 248 209 194 208 218 221 226 233 234 245 237 233 220 212 218 230 233 237 246 261 272
227 195 197 188 196 208 213 219 232 227 217 211 217 210 211 220 219 226 243 265 279 278
214 198 207 206 215 217 218 214 209 204 193 191 193 200 195 206 218 245 266 275 270 261
213 215 212 217 203 197 191 190 182 178 177 171 180 189 204 230 251 248 253 264 271 269
198 206 205 187 183 171 173 177 175 173 167 174 192 210 217 227 235 247 262 273 277 278
188 177 178 173 165 165 170 167 163 169 183 191 192 203 225 244 260 271 277 279 280 283
177 178 166 164 164 164 167 172 157 165 184 188 201 220 246 256 266 275 282 288 295 299
176 170 167 162 167 162 163 169 174 187 193 217 229 238 250 262 273 285 293 299 304 309
Wind_Speed_850mb
84 77 80 74 76 79 82 75 71 67 52 44 44 49 53 52 58 61 61 58 59 45
86 85 88 77 79 78 75 66 65 67 49 46 48 50 44 46 51 57 54 55 52 51
87 83 77 80 74 79 71 52 72 76 55 50 44 42 42 41 45 49 47 46 48 50
90 84 76 74 65 48 63 72 74 64 59 45 40 44 45 41 45 39 41 44 45 42
84 85 63 73 60 64 62 52 45 42 44 42 43 39 43 40 37 38 39 38 33 32
63 49 57 65 78 58 52 44 41 35 34 36 36 40 36 32 35 35 32 27 31 33
52 42 34 49 38 33 34 33 32 33 35 36 33 30 33 32 32 29 25 26 31 35
41 33 29 28 31 30 30 33 33 36 32 28 28 32 30 26 24 25 26 29 32 29
35 28 22 23 25 27 30 30 29 28 26 26 26 25 23 21 22 24 31 28 18 18
26 26 23 23 27 27 25 25 26 25 23 23 22 22 20 22 23 19 16 19 24 30
25 27 28 29 31 29 26 26 27 27 25 22 21 19 18 15 17 20 23 28 33 40
34 37 38 35 33 33 35 33 29 25 21 27 23 21 19 21 24 25 30 35 40 43
40 37 34 32 32 32 27 23 27 30 26 22 22 23 27 30 30 34 36 34 35 38
37 33 30 30 27 28 35 34 33 30 26 26 26 28 32 36 38 36 36 37 40 42
Wind_Direction_850mb
214 217 223 223 218 222 229 238 240 240 242 255 248 245 255 258 259 256 250 239 240 244
225 222 224 220 218 225 232 237 241 242 244 250 244 255 260 264 265 258 249 249 247 250
231 233 227 234 231 223 231 238 242 231 239 240 248 257 267 269 263 253 254 249 252 256
231 235 235 236 233 250 243 237 245 242 248 239 253 260 258 256 256 250 240 241 252 265
228 230 235 247 201 244 245 237 236 244 238 242 246 248 252 253 241 232 235 249 256 262
238 231 247 238 254 239 221 231 239 229 241 247 237 245 237 219 225 230 243 249 256 257
252 248 209 194 208 218 221 226 233 234 245 237 233 220 212 218 230 233 237 246 261 272
227 195 197 188 196 208 213 219 232 227 217 211 217 210 211 220 219 226 243 265 279 278
214 198 207 206 215 217 218 214 209 204 193 191 193 200 195 206 218 245 266 275 270 261
213 215 212 217 203 197 191 190 182 178 177 171 180 189 204 230 251 248 253 264 271 269
198 206 205 187 183 171 173 177 175 173 167 174 192 210 217 227 235 247 262 273 277 278
188 177 178 173 165 165 170 167 163 169 183 191 192 203 225 244 260 271 277 279 280 283
177 178 166 164 164 164 167 172 157 165 184 188 201 220 246 256 266 275 282 288 295 299
176 170 167 162 167 162 163 169 174 187 193 217 229 238 250 262 273 285 293 299 304 309